timestamp,surface_pressure_avg,surface_temp_avg,battery_voltage,lat,long
2023-08-31 00:09:01+00:00,393.6046,19.2,12.25,47.84626,-54.09684
2023-08-31 00:19:00+00:00,398.0995,19.27,12.25,47.84626,-54.09684
2023-08-31 00:29:00+00:00,390.6479,19.39,12.25,47.84626,-54.09684
2023-08-31 00:39:00+00:00,384.0997,19.39,12.25,47.84626,-54.09684
2023-08-31 00:49:00+00:00,382.038,19.39,12.25,47.84626,-54.09684
2023-08-31 00:59:00+00:00,376.3679,19.39,12.25,47.84626,-54.09684
2023-08-31 01:09:00+00:00,363.848,19.38,12.25,47.84626,-54.09684
2023-08-31 01:19:00+00:00,354.45300000000015,19.37,12.17,47.84626,-54.09684
2023-08-31 01:29:00+00:00,348.7196,19.34,12.17,47.84626,-54.09684
2023-08-31 01:39:00+00:00,342.593,19.37,12.17,47.84626,-54.09684
2023-08-31 01:49:00+00:00,335.478,19.39,12.17,47.84626,-54.09684
2023-08-31 01:59:00+00:00,325.83299999999997,19.3,12.17,47.84626,-54.09684
2023-08-31 02:09:00+00:00,317.3963,19.23,12.17,47.84626,-54.09684
2023-08-31 02:19:00+00:00,310.3447,19.29,12.17,47.84626,-54.09684
2023-08-31 02:29:00+00:00,296.4563,19.3,12.17,47.84626,-54.09684
2023-08-31 02:39:00+00:00,283.9764,19.3,12.17,47.84626,-54.09684
2023-08-31 02:49:00+00:00,273.1597,19.31,12.17,47.84626,-54.09684
2023-08-31 02:59:00+00:00,261.8548,19.4,12.17,47.84626,-54.09684
2023-08-31 03:09:00+00:00,251.4581,19.4,12.17,47.84626,-54.09684
2023-08-31 03:19:00+00:00,244.6997,19.4,12.17,47.84626,-54.09684
2023-08-31 03:29:00+00:00,234.5914,19.4,12.17,47.84626,-54.09684
2023-08-31 03:39:00+00:00,221.1681,19.45,12.17,47.84626,-54.09684
2023-08-31 03:49:00+00:00,213.2714,19.45,12.17,47.84626,-54.09684
2023-08-31 03:59:00+00:00,209.6581,19.46,12.17,47.84626,-54.09684
2023-08-31 04:09:00+00:00,200.8214,19.49,12.17,47.84626,-54.09684
2023-08-31 04:19:00+00:00,193.3531,19.5,12.17,47.84626,-54.09684
2023-08-31 04:29:00+00:00,193.7648,19.5,12.17,47.84626,-54.09684
2023-08-31 04:39:00+00:00,188.0198,19.5,12.17,47.84626,-54.09684
2023-08-31 04:49:00+00:00,179.0382,19.5,12.17,47.84626,-54.09684
2023-08-31 04:59:00+00:00,175.7515,19.53,12.17,47.84626,-54.09684
2023-08-31 05:09:00+00:00,174.4115,19.6,12.17,47.84626,-54.09684
2023-08-31 05:19:00+00:00,177.3731,19.6,12.17,47.84626,-54.09684
2023-08-31 05:29:00+00:00,179.2431,19.65,12.17,47.84626,-54.09684
2023-08-31 05:39:00+00:00,180.2664,19.69,12.17,47.84626,-54.09684
2023-08-31 05:49:00+00:00,184.6182,19.7,12.17,47.84626,-54.09684
2023-08-31 05:59:00+00:00,190.4865,19.7,12.17,47.84626,-54.09684
2023-08-31 06:09:00+00:00,191.3165,19.7,12.17,47.84626,-54.09684
2023-08-31 06:19:00+00:00,194.7032,19.7,12.17,47.84626,-54.09684
2023-08-31 06:29:00+00:00,204.0331,19.7,12.17,47.84626,-54.09684
2023-08-31 06:39:00+00:00,208.5247,19.7,12.17,47.84626,-54.09684
2023-08-31 06:49:00+00:00,211.2831,19.7,12.17,47.84626,-54.09684
2023-08-31 06:59:00+00:00,216.4931,19.7,12.17,47.84626,-54.09684
2023-08-31 07:09:00+00:00,222.9581,19.66,12.17,47.84626,-54.09684
2023-08-31 07:19:00+00:00,227.4847,19.6,12.17,47.84626,-54.09684
2023-08-31 07:29:00+00:00,229.1081,19.61,12.17,47.84626,-54.09684
2023-08-31 07:39:00+00:00,232.9464,19.64,12.17,47.84626,-54.09684
2023-08-31 07:49:00+00:00,239.188,19.61,12.17,47.84626,-54.09684
2023-08-31 07:59:00+00:00,237.3047,19.6,12.17,47.84626,-54.09684
2023-08-31 08:09:00+00:00,239.2981,19.6,12.17,47.84626,-54.09684
2023-08-31 08:19:00+00:00,253.2365,19.6,12.17,47.84626,-54.09684
2023-08-31 08:29:00+00:00,263.8847,19.6,12.17,47.84626,-54.09684
2023-08-31 08:39:00+00:00,268.5931,19.59,12.17,47.84626,-54.09684
2023-08-31 08:49:00+00:00,278.1814,19.6,12.17,47.84626,-54.09684
2023-08-31 08:59:00+00:00,284.3481,19.59,12.17,47.84626,-54.09684
2023-08-31 09:09:00+00:00,287.0397,19.6,12.17,47.84626,-54.09684
2023-08-31 09:19:00+00:00,291.2581,19.6,12.17,47.84626,-54.09684
2023-08-31 09:29:00+00:00,296.943,19.59,12.17,47.84626,-54.09684
2023-08-31 09:39:00+00:00,298.0696,19.56,12.17,47.84626,-54.09684
2023-08-31 09:49:00+00:00,301.2563,19.55,12.17,47.84626,-54.09684
2023-08-31 09:59:00+00:00,315.5847,19.55,12.17,47.84626,-54.09684
2023-08-31 10:09:00+00:00,328.6597,19.52,12.17,47.84626,-54.09684
2023-08-31 10:19:00+00:00,336.3279,19.55,12.17,47.84626,-54.09684
2023-08-31 10:29:00+00:00,346.6496,19.53,12.17,47.84626,-54.09684
2023-08-31 10:39:00+00:00,355.353,19.5,12.17,47.84626,-54.09684
2023-08-31 10:49:00+00:00,352.8946,19.5,12.17,47.84626,-54.09684
2023-08-31 10:59:00+00:00,347.2513,19.5,12.17,47.84626,-54.09684
2023-08-31 11:09:00+00:00,352.668,19.5,12.17,47.84626,-54.09684
2023-08-31 11:19:00+00:00,355.7396,19.5,12.17,47.84626,-54.09684
2023-08-31 11:29:00+00:00,353.6013,19.5,12.17,47.84626,-54.09684
2023-08-31 11:39:00+00:00,364.3963,19.5,12.17,47.84626,-54.09684
2023-08-31 11:49:00+00:00,375.4879,19.5,12.17,47.84626,-54.09684
2023-08-31 11:59:00+00:00,372.6062,19.5,12.17,47.84626,-54.09684
2023-08-31 12:09:00+00:00,367.1613,19.5,12.17,47.84626,-54.09684
2023-08-31 12:19:00+00:00,368.0146,19.5,12.17,47.84626,-54.09684
2023-08-31 12:29:00+00:00,376.1729,19.5,12.17,47.84626,-54.09684
2023-08-31 12:39:00+00:00,378.2045,19.5,12.17,47.84626,-54.09684
2023-08-31 12:49:00+00:00,367.2796,19.53,12.17,47.84626,-54.09684
2023-08-31 12:59:00+00:00,363.3729,19.54,12.17,47.84626,-54.09684
2023-08-31 13:09:00+00:00,363.7346,19.5,12.17,47.84626,-54.09684
2023-08-31 13:19:00+00:00,353.5729,19.53,12.17,47.84626,-54.09684
2023-08-31 13:29:00+00:00,344.5363,19.58,12.17,47.84626,-54.09684
2023-08-31 13:39:00+00:00,340.1047,19.6,12.17,47.84626,-54.09684
2023-08-31 13:49:00+00:00,336.3879,19.6,12.17,47.84626,-54.09684
2023-08-31 13:59:00+00:00,323.9496,19.6,12.17,47.84626,-54.09684
2023-08-31 14:09:00+00:00,318.428,19.61,12.17,47.84626,-54.09684
2023-08-31 14:19:01+00:00,315.158,19.68,12.17,47.84626,-54.09684
2023-08-31 14:29:01+00:00,298.9647,19.7,12.17,47.84626,-54.09684
2023-08-31 14:39:01+00:00,289.1163,19.7,12.17,47.84626,-54.09684
2023-08-31 14:49:01+00:00,282.0631,19.7,12.17,47.84626,-54.09684
2023-08-31 14:59:01+00:00,271.6214,19.7,12.17,47.84626,-54.09684
2023-08-31 15:09:01+00:00,253.6464,19.7,12.17,47.84626,-54.09684
2023-08-31 15:19:00+00:00,241.313,19.7,12.17,47.84626,-54.09684
2023-08-31 15:29:00+00:00,231.3648,19.7,12.17,47.84626,-54.09684
2023-08-31 15:39:00+00:00,224.3031,19.7,12.17,47.84626,-54.09684
2023-08-31 15:49:00+00:00,210.4898,19.7,12.17,47.84626,-54.09684
2023-08-31 15:59:00+00:00,204.9498,19.7,12.17,47.84626,-54.09684
2023-08-31 16:09:00+00:00,198.3381,19.7,12.17,47.84626,-54.09684
2023-08-31 16:19:00+00:00,186.9965,19.7,12.17,47.84626,-54.09684
2023-08-31 16:29:00+00:00,187.2698,19.7,12.17,47.84626,-54.09684
2023-08-31 16:39:00+00:00,186.2981,19.7,12.17,47.84626,-54.09684
2023-08-31 16:49:00+00:00,180.1665,19.68,12.17,47.84626,-54.09684
2023-08-31 16:59:00+00:00,176.4532,19.7,12.17,47.84626,-54.09684
2023-08-31 17:09:00+00:00,173.9282,19.7,12.17,47.84626,-54.09684
2023-08-31 17:19:00+00:00,170.0532,19.7,12.17,47.84626,-54.09684
2023-08-31 17:29:00+00:00,161.6465,19.7,12.17,47.84626,-54.09684
2023-08-31 17:39:00+00:00,159.1615,19.7,12.17,47.84626,-54.09684
2023-08-31 17:49:00+00:00,161.7765,19.7,12.17,47.84626,-54.09684
2023-08-31 17:59:00+00:00,160.3682,19.7,12.17,47.84626,-54.09684
2023-08-31 18:09:00+00:00,166.5115,19.7,12.17,47.84626,-54.09684
2023-08-31 18:19:00+00:00,178.9664,19.7,12.17,47.84626,-54.09684
2023-08-31 18:29:00+00:00,178.5648,19.7,12.17,47.84626,-54.09684
2023-08-31 18:39:00+00:00,174.4848,19.6,12.17,47.84626,-54.09684
2023-08-31 18:49:00+00:00,181.9715,19.6,12.17,47.84626,-54.09684
2023-08-31 18:59:00+00:00,189.8298,19.6,12.17,47.84626,-54.09684
2023-08-31 19:09:00+00:00,189.4048,19.58,12.17,47.84626,-54.09684
2023-08-31 19:19:01+00:00,193.1448,19.6,12.17,47.84626,-54.09684
2023-08-31 19:29:01+00:00,197.6948,19.59,12.17,47.84626,-54.09684
2023-08-31 19:39:01+00:00,200.2148,19.59,12.17,47.84626,-54.09684
2023-08-31 19:49:01+00:00,205.9448,19.59,12.17,47.84626,-54.09684
2023-08-31 19:59:01+00:00,212.1715,19.5,12.17,47.84626,-54.09684
2023-08-31 20:09:01+00:00,218.3282,19.55,12.17,47.84626,-54.09684
2023-08-31 20:19:01+00:00,226.5948,19.55,12.17,47.84626,-54.09684
2023-08-31 20:29:01+00:00,235.3631,19.58,12.17,47.84626,-54.09684
2023-08-31 20:39:01+00:00,245.8231,19.59,12.17,47.84626,-54.09684
2023-08-31 20:49:01+00:00,251.5431,19.6,12.17,47.84626,-54.09684
2023-08-31 20:59:01+00:00,257.4648,19.6,12.17,47.84626,-54.09684
2023-08-31 21:09:01+00:00,265.5581,19.6,12.17,47.84626,-54.09684
2023-08-31 21:19:01+00:00,271.523,19.6,12.17,47.84626,-54.09684
2023-08-31 21:29:01+00:00,279.458,19.5,12.17,47.84626,-54.09684
2023-08-31 21:39:01+00:00,293.7313,19.4,12.17,47.84626,-54.09684
2023-08-31 21:49:01+00:00,303.5964,19.3,12.17,47.84626,-54.09684
2023-08-31 21:59:01+00:00,312.5864,19.3,12.17,47.84626,-54.09684
2023-08-31 22:09:01+00:00,329.73800000000006,19.4,12.17,47.84626,-54.09684
2023-08-31 22:19:01+00:00,347.8946,19.3,12.09,47.84626,-54.09684
2023-08-31 22:29:01+00:00,355.2264,19.35,12.09,47.84626,-54.09684
2023-08-31 22:39:01+00:00,357.11800000000005,19.3,12.09,47.84626,-54.09684
2023-08-31 22:49:01+00:00,370.6213,19.29,12.09,47.84626,-54.09684
2023-08-31 22:59:01+00:00,382.9963,19.2,12.09,47.84626,-54.09684
2023-08-31 23:09:01+00:00,386.0646,19.3,12.09,47.84626,-54.09684
2023-08-31 23:19:00+00:00,390.4446,19.3,12.09,47.84626,-54.09684
2023-08-31 23:29:00+00:00,398.2963,19.2,12.09,47.84626,-54.09684
2023-08-31 23:39:00+00:00,400.9112,19.34,12.09,47.84626,-54.09684
2023-08-31 23:49:00+00:00,402.4212,19.21,12.09,47.84626,-54.09684
2023-08-31 23:59:00+00:00,409.8729,19.36,12.09,47.84626,-54.09684
